Regional Weather Roundup
Issued by NWS State College, PA

Home | Current Version | Previous Version | Text Only | Print | Product List | Glossary On
Versions: 1 2 3 4 5 6 7 8 9 10 11 12 13 14 15 16 17 18 19 20 21 22 23 24 25 26 27 28 29 30 31 32 33 34 35 36 37 38 39 40 41 42 43 44 45 46 47 48 49 50
000
ASUS41 KCTP 310010
RWRCTP

REGIONAL WEATHER ROUNDUP
NATIONAL WEATHER SERVICE STATE COLLEGE PA
800 PM EDT WED JUL 30 2014

Note: "fair" indicates few or no clouds below 12,000 feet with no
significant weather and/or obstructions to visibility.

* = STATION THAT DOES NOT REPORT PRECIPITATION /E.G. RAIN...SNOW...ETC/
    THUNDER OR FOG.

PAZ002>004-007>009-013>016-020>023-029>032-310100-
WESTERN PENNSYLVANIA

CITY           SKY/WX    TMP DP  RH WIND       PRES   REMARKS
ERIE           CLEAR     69  58  67 SW6       30.00R
MEADVILLE      MOCLDY    65  60  84 CALM      30.02S
FRANKLIN*      CLEAR     63  55  77 S6        30.05R
NEW CASTLE     FAIR      65  61  87 CALM      30.04R
BEAVER COUNTY  CLEAR     66  57  72 SW8       30.04R
BUTLER*        CLOUDY    66  55  68 CALM      30.05R
PITTSBURGH INT CLOUDY    66  56  70 SW10      30.04R
PITTSBURGH     CLOUDY    65  54  67 SW9       30.05R
INDIANA*       PTCLDY    63  61  94 CALM      30.09S
LATROBE        MOCLDY    63  63 100 SW14G25   30.07R
WASHINGTON CO* CLOUDY    59  55  88 CALM      30.08R THUNDER
$$

PAZ004>006-010>012-017>019-024>028-033>037-041-042-045-046-049>053-310100-
CENTRAL PENNSYLVANIA

CITY           SKY/WX    TMP DP  RH WIND       PRES   REMARKS
BRADFORD       PTCLDY    61  56  83 SW3       30.04F
DUBOIS         MOCLDY    61  57  87 CALM      30.04F
CLEARFIELD     CLOUDY    59  58  96 CALM      30.05F
JOHNSTOWN      MOCLDY    61  54  77 S7        30.08R
ALTOONA        MOCLDY    65  62  90 CALM      30.06R
STATE COLLEGE  MOCLDY    59  57  94 CALM      30.08R
WILLIAMSPORT   LGT RAIN  63  58  83 W8        30.03S
SELINSGROVE    MOCLDY    66  61  84 CALM      30.03R
FT INDIANTOWN  PTCLDY    72  56  57 NW3       30.04R
CAPITAL CITY   CLEAR     72  54  53 S5        30.03R
HARRISBURG     PTCLDY    74  55  51 SW6       30.02R
YORK           CLEAR     69  56  62 SW3       30.03S
$$

PAZ038>040-043-044-047-048-054-055-060>062-067>071-310100-
EASTERN PENNSYLVANIA

CITY           SKY/WX    TMP DP  RH WIND       PRES   REMARKS
SCRANTON       PTCLDY    72  51  47 SW5       30.03R
MOUNT POCONO   CLEAR     65  52  62 SW5       30.07R
ALLENTOWN      CLEAR     70  54  56 SW5       30.03R
QUAKERTOWN*    CLEAR     72  57  60 CALM      30.05R
READING        CLEAR     74  54  49 S5        30.03R
LANCASTER      CLEAR     72  53  51 S6        30.04R
COATESVILLE    CLEAR     70  55  60 W3        30.06R
POTTSTOWN      CLEAR     72  54  53 CALM      30.06R
BLUE BELL      CLEAR     70  59  68 CALM      30.03S
DOYLESTOWN     CLEAR     72  53  51 SW5       30.03R
WILLOW GROVE   NOT AVBL
NORTH PHILA    CLEAR     75  52  44 W6        30.04R
PHILADELPHIA   PTCLDY    76  53  44 S8        30.04R
$$


USA.gov is the U.S. government's official web portal to all federal, state and local government web resources and services.